QPF
0.00 0.00 0.00 0.00 0.00 0.00 0.00 0.00 0.00 0.00 0.00 0.00 0.00 0.00 0.00 0.00 0.00 0.00 0.00 0.00 0.00 0.00 0.00 0.00 0.00 0.00 0.00 0.00 0.00 0.00 0.00 0.00 0.00 0.00 0.00 0.00 0.00 0.00 0.00 0.00 0.00 0.00 0.00 0.00 0.00
0.00 0.00 0.00 0.00 0.00 0.00 0.00 0.00 0.00 0.00 0.00 0.00 0.00 0.00 0.00 0.00 0.00 0.00 0.00 0.00 0.00 0.00 0.00 0.00 0.00 0.00 0.00 0.00 0.00 0.00 0.00 0.00 0.00 0.00 0.00 0.00 0.00 0.00 0.00 0.00 0.00 0.00 0.00 0.00 0.00
0.00 0.00 0.00 0.00 0.00 0.00 0.00 0.00 0.00 0.00 0.00 0.00 0.00 0.00 0.00 0.00 0.00 0.00 0.00 0.00 0.00 0.00 0.00 0.00 0.00 0.00 0.00 0.00 0.00 0.00 0.00 0.00 0.00 0.00 0.00 0.00 0.00 0.00 0.00 0.00 0.00 0.00 0.00 0.00 0.00
0.00 0.00 0.00 0.00 0.00 0.00 0.00 0.00 0.00 0.00 0.00 0.00 0.00 0.00 0.00 0.00 0.00 0.00 0.00 0.00 0.00 0.00 0.00 0.00 0.00 0.00 0.00 0.00 0.00 0.00 0.00 0.00 0.00 0.00 0.00 0.00 0.00 0.00 0.00 0.00 0.00 0.00 0.00 0.00 0.00
0.00 0.00 0.00 0.00 0.00 0.00 0.00 0.00 0.00 0.00 0.00 0.00 0.00 0.00 0.00 0.00 0.00 0.00 0.00 0.00 0.00 0.00 0.00 0.00 0.00 0.00 0.00 0.00 0.00 0.00 0.00 0.00 0.00 0.00 0.00 0.00 0.00 0.00 0.00 0.00 0.00 0.00 0.00 0.00 0.00
0.00 0.00 0.00 0.00 0.00 0.00 0.00 0.00 0.00 0.00 0.00 0.00 0.00 0.00 0.00 0.00 0.00 0.00 0.00 0.00 0.00 0.00 0.00 0.00 0.00 0.00 0.00 0.00 0.00 0.00 0.00 0.00 0.00 0.00 0.00 0.00 0.00 0.00 0.00 0.00 0.00 0.00 0.00 0.00 0.00
0.00 0.00 0.00 0.00 0.00 0.00 0.00 0.00 0.00 0.00 0.00 0.00 0.00 0.00 0.00 0.00 0.00 0.00 0.00 0.00 0.00 0.00 0.00 0.00 0.00 0.00 0.00 0.00 0.00 0.00 0.00 0.00 0.00 0.00 0.00 0.00 0.00 0.00 0.00 0.00 0.00 0.00 0.00 0.00 0.00
0.00 0.00 0.00 0.00 0.00 0.00 0.00 0.00 0.00 0.00 0.00 0.00 0.00 0.00 0.00 0.00 0.00 0.00 0.00 0.00 0.00 0.00 0.00 0.00 0.00 0.00 0.00 0.00 0.00 0.00 0.00 0.00 0.00 0.00 0.00 0.00 0.00 0.00 0.00 0.00 0.00 0.00 0.00 0.00 0.00
0.00 0.00 0.00 0.00 0.00 0.00 0.00 0.00 0.00 0.00 0.00 0.00 0.00 0.00 0.00 0.00 0.00 0.00 0.00 0.00 0.00 0.00 0.00 0.00 0.00 0.00 0.00 0.00 0.00 0.00 0.00 0.00 0.00 0.00 0.00 0.00 0.00 0.00 0.00 0.00 0.00 0.00 0.00 0.00 0.00
0.00 0.00 0.00 0.00 0.00 0.00 0.00 0.00 0.00 0.00 0.00 0.00 0.00 0.00 0.00 0.00 0.00 0.00 0.00 0.00 0.00 0.00 0.00 0.00 0.00 0.00 0.00 0.00 0.00 0.00 0.00 0.00 0.00 0.00 0.00 0.00 0.00 0.00 0.00 0.00 0.00 0.00 0.00 0.00 0.00
0.00 0.00 0.00 0.00 0.00 0.00 0.00 0.00 0.00 0.00 0.00 0.00 0.00 0.00 0.00 0.00 0.00 0.00 0.00 0.00 0.00 0.00 0.00 0.00 0.00 0.00 0.00 0.00 0.00 0.00 0.00 0.00 0.00 0.00 0.00 0.00 0.00 0.00 0.00 0.00 0.00 0.00 0.00 0.00 0.00
0.00 0.00 0.00 0.00 0.00 0.00 0.00 0.00 0.00 0.00 0.00 0.00 0.00 0.00 0.00 0.00 0.00 0.00 0.00 0.00 0.00 0.00 0.00 0.00 0.00 0.00 0.00 0.00 0.00 0.00 0.00 0.00 0.00 0.00 0.00 0.00 0.00 0.00 0.00 0.00 0.00 0.00 0.00 0.00 0.00
0.00 0.00 0.00 0.00 0.00 0.00 0.00 0.00 0.00 0.00 0.00 0.00 0.00 0.00 0.00 0.00 0.00 0.00 0.00 0.00 0.00 0.00 0.00 0.00 0.00 0.00 0.00 0.00 0.00 0.00 0.00 0.00 0.00 0.00 0.00 0.00 0.00 0.00 0.00 0.00 0.00 0.00 0.00 0.00 0.00
0.00 0.00 0.00 0.00 0.00 0.00 0.00 0.00 0.00 0.00 0.00 0.00 0.00 0.00 0.00 0.00 0.00 0.00 0.00 0.00 0.00 0.00 0.00 0.00 0.00 0.00 0.00 0.00 0.00 0.00 0.00 0.00 0.00 0.00 0.00 0.00 0.00 0.00 0.00 0.00 0.00 0.00 0.00 0.00 0.00
0.00 0.00 0.00 0.00 0.00 0.00 0.00 0.00 0.00 0.00 0.00 0.00 0.00 0.00 0.00 0.00 0.00 0.00 0.00 0.00 0.00 0.00 0.00 0.00 0.00 0.00 0.00 0.00 0.00 0.00 0.00 0.00 0.00 0.00 0.00 0.00 0.00 0.00 0.00 0.00 0.00 0.00 0.00 0.00 0.00
0.00 0.00 0.00 0.00 0.00 0.00 0.00 0.00 0.00 0.00 0.00 0.00 0.00 0.00 0.00 0.00 0.00 0.00 0.00 0.00 0.00 0.00 0.00 0.00 0.00 0.00 0.00 0.00 0.00 0.00 0.00 0.00 0.00 0.00 0.00 0.00 0.00 0.00 0.00 0.00 0.00 0.00 0.00 0.00 0.00
0.00 0.00 0.00 0.00 0.00 0.00 0.00 0.00 0.00 0.00 0.00 0.00 0.00 0.00 0.00 0.00 0.00 0.00 0.00 0.00 0.00 0.00 0.00 0.00 0.00 0.00 0.00 0.00 0.00 0.00 0.00 0.00 0.00 0.00 0.00 0.00 0.00 0.00 0.00 0.00 0.00 0.00 0.00 0.00 0.00
0.00 0.00 0.00 0.00 0.00 0.00 0.00 0.00 0.00 0.00 0.00 0.00 0.00 0.00 0.00 0.00 0.00 0.00 0.00 0.00 0.00 0.00 0.00 0.00 0.00 0.00 0.00 0.00 0.00 0.00 0.00 0.00 0.00 0.00 0.00 0.00 0.00 0.00 0.00 0.00 0.00 0.00 0.00 0.00 0.00
0.00 0.00 0.00 0.00 0.00 0.00 0.00 0.00 0.00 0.00 0.00 0.00 0.00 0.00 0.00 0.00 0.00 0.00 0.00 0.00 0.00 0.00 0.00 0.00 0.00 0.00 0.00 0.00 0.00 0.00 0.00 0.00 0.00 0.00 0.00 0.00 0.00 0.00 0.00 0.00 0.00 0.00 0.00 0.00 0.00
0.00 0.00 0.00 0.00 0.00 0.00 0.00 0.00 0.00 0.00 0.00 0.00 0.00 0.00 0.00 0.00 0.00 0.00 0.00 0.00 0.00 0.00 0.00 0.00 0.00 0.00 0.00 0.00 0.00 0.00 0.00 0.00 0.00 0.00 0.00 0.00 0.00 0.00 0.00 0.00 0.00 0.00 0.00 0.00 0.00
0.00 0.00 0.00 0.00 0.00 0.00 0.00 0.00 0.00 0.00 0.00 0.00 0.00 0.00 0.00 0.00 0.00 0.00 0.00 0.00 0.00 0.00 0.00 0.00 0.00 0.00 0.00 0.00 0.00 0.00 0.00 0.00 0.00 0.00 0.00 0.00 0.00 0.00 0.00 0.00 0.00 0.00 0.00 0.00 0.00
0.00 0.00 0.00 0.00 0.00 0.00 0.00 0.00 0.00 0.00 0.00 0.00 0.00 0.00 0.00 0.00 0.00 0.00 0.00 0.00 0.00 0.00 0.00 0.00 0.00 0.00 0.00 0.00 0.00 0.00 0.00 0.00 0.00 0.00 0.00 0.00 0.00 0.00 0.00 0.00 0.00 0.00 0.00 0.00 0.00
0.00 0.00 0.00 0.00 0.00 0.00 0.00 0.00 0.00 0.00 0.00 0.00 0.00 0.00 0.00 0.00 0.00 0.00 0.00 0.00 0.00 0.00 0.00 0.00 0.00 0.00 0.00 0.00 0.00 0.00 0.00 0.00 0.00 0.00 0.00 0.00 0.00 0.00 0.00 0.00 0.00 0.00 0.00 0.00 0.00
0.00 0.00 0.00 0.00 0.00 0.00 0.00 0.00 0.00 0.00 0.00 0.00 0.00 0.00 0.00 0.00 0.00 0.00 0.00 0.00 0.00 0.00 0.00 0.00 0.00 0.00 0.00 0.00 0.00 0.00 0.00 0.00 0.00 0.00 0.00 0.00 0.00 0.00 0.00 0.00 0.00 0.00 0.00 0.00 0.00
0.00 0.00 0.00 0.00 0.00 0.00 0.00 0.00 0.00 0.00 0.00 0.00 0.00 0.00 0.00 0.00 0.00 0.00 0.00 0.00 0.00 0.00 0.00 0.00 0.00 0.00 0.00 0.00 0.00 0.00 0.00 0.00 0.00 0.00 0.00 0.00 0.00 0.00 0.00 0.00 0.00 0.00 0.00 0.00 0.00
0.00 0.00 0.00 0.00 0.00 0.00 0.00 0.00 0.00 0.00 0.00 0.00 0.00 0.00 0.00 0.00 0.00 0.00 0.00 0.00 0.00 0.00 0.00 0.00 0.00 0.00 0.00 0.00 0.00 0.00 0.00 0.00 0.00 0.00 0.00 0.00 0.00 0.00 0.00 0.00 0.00 0.00 0.00 0.00 0.00
0.00 0.00 0.00 0.00 0.00 0.00 0.00 0.00 0.00 0.00 0.00 0.00 0.00 0.00 0.00 0.00 0.00 0.00 0.00 0.00 0.00 0.00 0.00 0.00 0.00 0.00 0.00 0.00 0.00 0.00 0.00 0.00 0.00 0.00 0.00 0.00 0.00 0.00 0.00 0.00 0.00 0.00 0.00 0.00 0.00
MSLP
1018.79 1019.15 1019.25 1019.32 1019.21 1019.15 1019.03 1018.80 1018.75 1018.55 1018.22 1017.97 1017.80 1017.45 1017.22 1016.92 1016.32 1016.39 1017.23 1017.40 1016.84 1016.11 1015.82 1015.19 1014.78 1014.34 1014.38 1015.44 1016.06 1016.96 1019.16 1021.11 1021.59 1021.99 1022.28 1022.66 1023.47 1024.71 1025.42 1025.83 1026.49 1026.86 1027.23 1027.75 1028.08
1018.72 1019.05 1019.24 1019.32 1019.19 1019.15 1018.96 1018.80 1018.74 1018.45 1018.20 1018.01 1017.85 1017.52 1017.30 1017.14 1016.98 1017.24 1017.53 1016.87 1016.55 1016.22 1015.69 1015.40 1015.17 1014.81 1015.70 1016.30 1016.88 1017.83 1019.74 1020.38 1020.64 1020.89 1021.76 1022.78 1023.47 1024.86 1026.01 1026.70 1027.56 1027.74 1027.85 1028.03 1028.24
1018.56 1018.89 1019.12 1019.21 1019.22 1019.04 1018.81 1018.72 1018.56 1018.36 1018.17 1018.09 1017.78 1017.50 1017.33 1017.18 1017.25 1017.50 1017.18 1016.69 1016.31 1016.08 1016.02 1015.69 1015.41 1015.42 1016.45 1016.96 1017.91 1018.92 1019.94 1020.36 1020.69 1020.98 1021.50 1022.93 1024.33 1025.12 1026.19 1027.23 1027.30 1027.80 1028.12 1028.33 1028.73
1018.38 1018.71 1018.90 1018.95 1019.07 1019.02 1018.75 1018.63 1018.51 1018.26 1018.15 1018.05 1017.78 1017.55 1017.25 1017.14 1017.86 1017.56 1017.02 1016.67 1016.18 1015.75 1015.83 1015.60 1015.58 1016.27 1017.40 1018.26 1018.78 1019.98 1020.54 1020.47 1021.01 1021.68 1022.37 1023.54 1024.62 1025.91 1026.57 1026.66 1026.69 1027.51 1027.90 1028.47 1028.89
1018.11 1018.36 1018.67 1018.76 1018.78 1018.87 1018.75 1018.49 1018.30 1018.20 1018.10 1017.90 1017.74 1017.49 1017.24 1017.42 1018.02 1017.35 1017.10 1016.71 1016.08 1015.77 1015.97 1015.84 1016.12 1016.92 1018.21 1019.05 1019.60 1020.61 1021.14 1021.47 1021.79 1022.17 1023.38 1023.95 1025.29 1026.23 1027.16 1027.18 1027.22 1027.62 1027.99 1028.41 1028.81
1017.87 1018.11 1018.38 1018.70 1018.58 1018.75 1018.68 1018.45 1018.22 1018.03 1017.92 1017.79 1017.65 1017.39 1017.51 1017.81 1017.85 1017.53 1017.45 1016.88 1016.52 1016.32 1016.39 1016.39 1016.46 1017.25 1018.57 1019.88 1020.51 1021.47 1021.93 1022.53 1022.72 1023.22 1023.84 1024.80 1025.92 1026.11 1027.34 1027.44 1027.71 1027.93 1028.36 1028.64 1028.85
1017.59 1017.87 1018.20 1018.41 1018.50 1018.45 1018.39 1018.38 1018.20 1018.03 1017.87 1017.73 1017.57 1017.49 1017.53 1017.96 1017.73 1017.61 1017.49 1017.15 1016.89 1016.57 1016.74 1016.98 1016.91 1017.39 1018.85 1020.46 1021.39 1021.92 1022.95 1023.29 1023.46 1023.62 1024.39 1024.67 1026.19 1026.10 1026.49 1027.28 1027.94 1028.30 1028.62 1028.81 1028.81
1017.27 1017.57 1017.97 1018.29 1018.30 1018.19 1018.31 1018.23 1018.19 1017.98 1017.68 1017.66 1017.50 1017.56 1017.82 1017.71 1017.78 1017.78 1017.46 1017.20 1017.06 1016.82 1016.89 1017.08 1017.29 1018.25 1019.49 1020.68 1021.63 1022.53 1023.38 1024.11 1023.82 1023.89 1024.50 1024.88 1025.42 1025.71 1026.29 1027.14 1027.90 1028.38 1028.53 1028.66 1028.69
1016.93 1017.34 1017.58 1018.19 1018.24 1018.27 1018.27 1018.13 1018.06 1017.90 1017.63 1017.58 1017.63 1017.49 1017.96 1017.80 1017.89 1018.05 1017.82 1017.74 1017.57 1017.22 1017.13 1017.09 1017.74 1019.83 1020.61 1021.48 1022.78 1023.32 1023.64 1024.13 1024.13 1023.91 1024.34 1025.05 1025.22 1025.27 1026.11 1026.94 1027.65 1028.03 1028.38 1028.50 1028.73
1016.54 1017.08 1017.45 1017.84 1018.23 1018.30 1018.22 1018.03 1017.76 1017.76 1017.58 1017.68 1017.70 1018.14 1018.26 1018.00 1018.02 1018.10 1017.91 1017.80 1017.92 1017.75 1017.63 1018.04 1019.41 1020.70 1021.50 1021.82 1022.41 1023.03 1023.70 1023.97 1024.05 1024.07 1024.56 1025.07 1025.12 1025.63 1026.21 1026.81 1027.15 1027.57 1027.98 1028.15 1028.36
1015.98 1016.75 1017.22 1017.64 1018.09 1018.26 1018.33 1018.07 1018.32 1018.40 1018.02 1017.80 1017.73 1018.07 1018.20 1018.29 1018.11 1018.03 1017.98 1017.88 1018.03 1018.20 1018.63 1019.17 1020.18 1020.59 1020.55 1021.27 1021.24 1021.89 1022.80 1023.41 1023.77 1023.83 1024.36 1024.44 1024.77 1025.19 1025.79 1026.34 1026.71 1027.02 1027.49 1027.81 1027.89
1015.48 1016.45 1017.08 1017.38 1017.78 1018.23 1018.58 1018.03 1017.22 1017.34 1017.94 1018.01 1018.14 1018.14 1018.08 1018.13 1018.42 1018.37 1018.12 1018.12 1018.24 1018.71 1019.06 1019.84 1020.24 1020.32 1020.53 1021.05 1021.24 1021.90 1022.93 1023.68 1023.93 1024.02 1024.62 1024.54 1024.29 1024.66 1024.86 1024.68 1024.98 1025.65 1026.34 1026.81 1027.38
1014.72 1016.00 1017.01 1017.40 1017.61 1018.20 1018.42 1017.40 1016.88 1016.95 1017.81 1018.30 1018.06 1018.06 1018.15 1018.30 1018.40 1018.63 1018.54 1018.18 1018.43 1019.20 1019.74 1020.19 1020.57 1020.36 1020.69 1021.26 1021.59 1022.20 1022.79 1023.68 1024.07 1024.54 1024.86 1025.01 1023.88 1023.42 1023.28 1023.69 1024.15 1024.45 1025.07 1025.77 1026.57
1014.15 1015.38 1016.71 1017.29 1018.27 1017.66 1017.71 1016.78 1016.98 1016.84 1018.51 1018.39 1018.49 1017.94 1017.96 1018.03 1018.78 1018.62 1018.69 1018.62 1018.83 1019.37 1020.15 1020.88 1021.02 1021.01 1021.15 1021.68 1022.10 1022.69 1022.91 1023.61 1024.59 1025.34 1025.92 1025.81 1024.91 1023.30 1022.86 1022.94 1023.22 1023.51 1024.15 1025.02 1026.02
1013.72 1014.49 1015.99 1016.97 1016.98 1017.00 1016.12 1016.42 1016.96 1017.04 1018.82 1018.09 1018.44 1018.33 1017.98 1018.29 1018.55 1018.78 1018.80 1018.61 1019.30 1020.11 1020.47 1021.18 1021.54 1021.70 1021.86 1022.21 1022.49 1023.16 1023.59 1024.47 1025.52 1026.24 1026.61 1026.57 1026.34 1022.54 1022.44 1022.55 1021.85 1022.49 1023.20 1024.24 1025.22
1012.85 1014.00 1015.37 1016.91 1017.08 1016.34 1016.08 1016.42 1017.23 1018.76 1018.11 1018.29 1018.54 1018.60 1018.75 1018.55 1018.74 1018.86 1018.82 1019.09 1019.62 1020.33 1021.20 1021.83 1022.01 1022.46 1022.67 1022.78 1023.13 1023.75 1024.59 1025.87 1027.01 1027.80 1028.07 1026.23 1025.96 1022.89 1021.73 1020.55 1020.69 1021.35 1022.47 1023.58 1024.77
1011.97 1013.33 1014.42 1015.58 1016.00 1015.88 1016.14 1017.16 1018.91 1018.72 1017.62 1018.41 1018.62 1018.61 1019.16 1019.51 1019.51 1019.15 1019.02 1019.49 1019.83 1020.89 1022.07 1022.23 1022.33 1022.63 1022.88 1023.47 1023.70 1024.30 1025.60 1027.77 1029.05 1029.55 1028.32 1026.94 1026.29 1021.91 1019.94 1019.39 1019.64 1020.41 1021.65 1022.96 1024.15
1010.99 1012.53 1013.85 1014.72 1015.30 1015.85 1016.24 1018.30 1018.29 1016.79 1017.52 1017.77 1018.24 1018.88 1019.24 1019.50 1019.90 1019.82 1019.69 1019.72 1019.83 1019.92 1021.63 1022.18 1022.97 1022.83 1023.02 1023.78 1023.80 1024.90 1025.84 1026.98 1028.79 1030.12 1028.84 1027.36 1024.97 1020.25 1018.72 1018.59 1019.05 1019.74 1020.92 1022.55 1023.92
1010.96 1012.50 1013.87 1014.70 1014.94 1015.88 1016.41 1017.80 1015.64 1015.96 1015.89 1016.98 1018.41 1019.08 1019.66 1019.56 1019.76 1020.11 1020.13 1019.44 1018.89 1019.24 1019.70 1021.49 1022.55 1023.21 1023.35 1023.62 1024.48 1025.30 1026.02 1026.73 1028.58 1030.49 1029.23 1026.03 1023.33 1019.66 1018.37 1018.73 1019.11 1019.99 1021.02 1022.12 1023.29
1010.80 1012.96 1014.02 1014.30 1014.46 1016.03 1017.66 1015.93 1015.71 1015.10 1015.23 1015.92 1016.57 1017.72 1018.67 1019.29 1019.74 1019.74 1019.92 1017.96 1018.00 1017.92 1018.13 1019.79 1022.26 1023.51 1023.68 1023.41 1024.82 1025.07 1025.46 1026.74 1028.58 1029.73 1028.82 1025.86 1023.58 1020.19 1018.55 1018.78 1019.34 1020.12 1020.68 1021.72 1022.90
1010.34 1012.24 1013.74 1014.52 1015.06 1016.68 1017.16 1015.41 1015.20 1014.47 1014.22 1014.70 1015.38 1017.08 1017.84 1018.41 1018.76 1018.97 1018.31 1017.24 1017.06 1017.78 1018.06 1019.64 1020.77 1024.18 1023.99 1023.48 1024.04 1025.45 1025.58 1026.35 1027.35 1027.92 1027.31 1025.77 1021.88 1017.80 1017.11 1018.03 1018.61 1019.05 1020.10 1021.19 1022.22
1009.65 1011.64 1013.18 1013.90 1015.83 1015.66 1015.17 1014.64 1013.50 1013.62 1013.58 1013.67 1014.09 1015.27 1016.38 1017.25 1017.95 1018.25 1017.64 1016.87 1016.36 1016.97 1018.28 1019.30 1021.42 1023.51 1023.74 1023.32 1023.30 1024.26 1024.68 1025.10 1026.57 1027.54 1027.14 1025.47 1020.14 1016.85 1016.99 1017.20 1017.84 1018.49 1019.65 1020.82 1021.84
1009.40 1012.03 1013.50 1012.19 1013.33 1013.82 1013.81 1013.51 1013.11 1012.92 1012.76 1013.22 1013.85 1014.06 1015.40 1016.39 1017.15 1017.33 1016.89 1017.03 1016.87 1016.90 1017.15 1018.49 1020.99 1023.16 1024.05 1024.25 1023.83 1023.95 1023.69 1024.37 1025.13 1025.36 1025.62 1024.88 1019.04 1017.08 1016.85 1017.28 1017.78 1018.56 1019.55 1020.54 1021.67
1009.95 1012.10 1013.91 1012.93 1011.46 1011.31 1011.74 1011.37 1012.25 1011.93 1011.93 1012.19 1012.82 1013.67 1014.83 1015.84 1016.17 1016.91 1017.21 1017.45 1017.29 1017.35 1017.54 1017.76 1019.82 1020.60 1021.18 1020.74 1021.02 1022.55 1022.27 1022.82 1023.69 1024.46 1023.02 1020.65 1018.73 1016.22 1016.91 1017.07 1017.61 1018.34 1019.11 1020.08 1021.06
1009.92 1010.98 1011.02 1011.62 1009.67 1009.54 1010.21 1009.78 1010.46 1010.75 1010.65 1011.15 1012.07 1012.14 1013.15 1015.04 1015.90 1016.54 1017.12 1017.79 1017.80 1017.90 1018.38 1018.70 1019.95 1020.64 1020.52 1020.52 1020.61 1020.41 1020.65 1021.25 1021.70 1021.01 1020.82 1017.96 1018.04 1014.34 1015.43 1016.17 1016.55 1017.21 1018.75 1020.05 1020.93
1009.96 1010.27 1010.64 1010.02 1010.24 1010.06 1009.46 1008.57 1008.56 1008.84 1008.63 1009.80 1010.22 1010.96 1011.42 1011.98 1012.47 1014.77 1015.65 1016.45 1016.90 1018.65 1018.97 1019.75 1020.34 1020.90 1021.22 1020.73 1020.59 1020.23 1019.76 1020.05 1020.42 1020.14 1019.49 1018.03 1016.21 1012.91 1014.05 1015.13 1016.14 1017.18 1018.06 1019.08 1019.94
1009.62 1009.76 1009.62 1008.38 1009.04 1009.31 1007.47 1005.13 1004.58 1006.63 1008.07 1006.26 1007.25 1010.26 1011.13 1010.31 1011.39 1011.86 1013.10 1013.90 1014.83 1016.47 1018.69 1019.86 1020.48 1021.34 1021.45 1021.06 1020.71 1019.65 1017.98 1017.78 1017.96 1017.41 1016.85 1016.57 1013.06 1012.64 1013.41 1014.26 1014.75 1015.96 1016.82 1017.18 1017.92
Thickness
5647 5644 5645 5645 5648 5650 5653 5656 5658 5662 5666 5670 5673 5677 5680 5683 5688 5689 5680 5681 5687 5694 5698 5703 5708 5710 5709 5698 5695 5687 5650 5636 5637 5635 5637 5633 5628 5616 5608 5605 5600 5598 5593 5587 5581
5644 5642 5642 5642 5645 5647 5650 5653 5655 5659 5663 5666 5668 5673 5675 5677 5681 5677 5677 5683 5686 5690 5697 5698 5699 5702 5687 5686 5683 5668 5646 5648 5651 5647 5637 5632 5627 5611 5603 5596 5588 5585 5584 5581 5577
5641 5640 5639 5640 5642 5644 5648 5651 5654 5657 5660 5662 5666 5670 5672 5674 5675 5673 5676 5681 5685 5688 5691 5693 5695 5695 5680 5678 5670 5660 5648 5654 5648 5647 5643 5630 5617 5612 5594 5594 5588 5582 5579 5577 5570
5638 5637 5637 5639 5640 5641 5645 5648 5651 5655 5657 5659 5662 5665 5670 5672 5668 5669 5675 5678 5683 5688 5689 5692 5690 5679 5666 5662 5659 5650 5647 5652 5649 5641 5636 5625 5612 5596 5594 5597 5591 5581 5578 5571 5567
5635 5635 5635 5636 5639 5639 5642 5646 5650 5652 5654 5657 5660 5663 5667 5665 5660 5669 5671 5674 5680 5685 5682 5685 5680 5670 5657 5653 5652 5642 5643 5637 5632 5629 5616 5616 5601 5591 5584 5582 5581 5578 5576 5569 5564
5631 5632 5632 5633 5636 5636 5637 5642 5646 5650 5652 5655 5657 5660 5661 5660 5659 5663 5664 5670 5673 5676 5674 5674 5676 5667 5653 5641 5638 5632 5627 5625 5622 5617 5614 5601 5592 5599 5584 5578 5577 5575 5568 5563 5559
5628 5628 5628 5630 5632 5635 5637 5637 5641 5645 5648 5650 5653 5655 5656 5654 5656 5658 5661 5664 5667 5671 5667 5666 5669 5664 5650 5635 5628 5625 5616 5614 5615 5613 5605 5599 5594 5591 5584 5577 5573 5567 5561 5558 5556
5625 5624 5624 5624 5627 5631 5632 5634 5636 5640 5644 5646 5649 5650 5648 5650 5651 5652 5656 5659 5661 5664 5663 5662 5660 5650 5642 5632 5625 5616 5607 5601 5610 5607 5599 5599 5595 5590 5580 5574 5567 5561 5555 5555 5554
5620 5621 5621 5619 5621 5623 5626 5630 5632 5635 5639 5640 5643 5647 5643 5645 5645 5645 5649 5650 5651 5655 5656 5658 5652 5633 5630 5612 5601 5605 5597 5597 5601 5602 5599 5593 5594 5590 5578 5572 5564 5556 5553 5552 5549
5615 5616 5615 5614 5614 5616 5619 5623 5628 5630 5633 5634 5636 5637 5636 5638 5638 5639 5643 5644 5643 5645 5645 5642 5623 5612 5608 5603 5604 5597 5595 5594 5588 5595 5590 5585 5582 5582 5572 5568 5564 5554 5551 5549 5546
5612 5609 5609 5608 5607 5609 5612 5615 5616 5618 5623 5631 5630 5628 5629 5632 5634 5636 5637 5638 5638 5633 5627 5626 5614 5607 5616 5610 5617 5604 5602 5597 5592 5593 5589 5581 5582 5578 5570 5566 5561 5553 5550 5545 5544
5608 5603 5602 5603 5601 5600 5603 5609 5618 5623 5614 5619 5619 5620 5625 5626 5625 5628 5630 5631 5630 5620 5621 5613 5610 5613 5607 5609 5613 5604 5593 5587 5586 5586 5582 5583 5585 5577 5572 5578 5576 5567 5556 5552 5545
5604 5598 5592 5593 5595 5593 5593 5606 5610 5614 5609 5608 5614 5614 5617 5619 5619 5618 5622 5625 5623 5614 5612 5607 5607 5609 5606 5600 5599 5593 5589 5571 5589 5573 5576 5571 5585 5586 5581 5577 5571 5570 5565 5557 5548
5596 5591 5583 5584 5580 5588 5591 5600 5602 5606 5573 5600 5597 5607 5612 5616 5612 5613 5613 5617 5615 5606 5602 5598 5595 5598 5596 5590 5586 5588 5585 5574 5561 5561 5551 5563 5547 5588 5579 5575 5575 5575 5562 5555 5542
5587 5586 5577 5572 5579 5583 5596 5595 5593 5596 5538 5594 5584 5596 5605 5607 5607 5606 5607 5611 5604 5598 5598 5595 5587 5587 5588 5583 5579 5580 5572 5563 5556 5546 5550 5549 5521 5592 5579 5573 5578 5575 5565 5552 5543
5580 5575 5568 5561 5567 5577 5581 5582 5580 5546 5531 5559 5572 5577 5587 5599 5599 5598 5602 5600 5593 5588 5576 5575 5577 5571 5569 5564 5567 5560 5555 5538 5522 5522 5479 5544 5538 5577 5577 5587 5589 5578 5563 5550 5537
5572 5566 5562 5558 5560 5563 5566 5561 5516 5508 5565 5552 5559 5571 5578 5577 5582 5587 5590 5585 5579 5574 5571 5570 5568 5566 5564 5557 5560 5552 5542 5469 5479 5445 5498 5528 5524 5574 5594 5590 5588 5577 5565 5548 5538
5567 5556 5550 5548 5549 5548 5551 5528 5494 5520 5544 5555 5557 5561 5574 5575 5572 5573 5572 5577 5578 5577 5551 5564 5557 5553 5559 5553 5551 5541 5539 5510 5496 5476 5509 5523 5517 5591 5595 5590 5585 5575 5566 5545 5531
5548 5538 5533 5533 5534 5532 5532 5500 5539 5533 5555 5557 5554 5543 5550 5567 5566 5567 5557 5566 5578 5571 5588 5552 5568 5547 5547 5547 5542 5540 5519 5530 5460 5407 5462 5526 5547 5583 5580 5584 5581 5560 5549 5539 5530
5532 5518 5518 5519 5522 5510 5488 5542 5528 5558 5553 5557 5572 5546 5537 5540 5558 5553 5547 5578 5586 5581 5587 5568 5537 5538 5540 5546 5531 5531 5531 5510 5461 5490 5468 5507 5530 5579 5594 5571 5567 5549 5544 5537 5527
5517 5511 5503 5499 5501 5482 5481 5508 5532 5549 5557 5556 5557 5531 5543 5535 5553 5552 5562 5584 5584 5569 5579 5558 5554 5520 5535 5532 5524 5506 5502 5497 5502 5493 5487 5477 5542 5579 5598 5571 5563 5558 5546 5535 5524
5507 5498 5489 5489 5468 5474 5496 5498 5545 5542 5545 5556 5553 5548 5541 5538 5539 5549 5566 5570 5574 5569 5565 5560 5522 5493 5520 5529 5528 5520 5524 5514 5491 5497 5467 5466 5537 5587 5581 5572 5560 5552 5541 5529 5521
5495 5470 5465 5483 5482 5483 5492 5507 5527 5529 5532 5537 5542 5555 5534 5530 5542 5540 5552 5544 5555 5561 5560 5549 5506 5473 5500 5512 5514 5511 5514 5511 5465 5465 5472 5473 5573 5560 5563 5558 5549 5542 5529 5525 5514
5474 5455 5439 5452 5484 5505 5513 5504 5511 5517 5531 5531 5532 5529 5522 5513 5526 5524 5536 5528 5533 5547 5553 5554 5508 5526 5561 5566 5522 5512 5516 5519 5493 5461 5484 5538 5544 5595 5566 5552 5547 5534 5528 5520 5512
5452 5449 5458 5458 5491 5504 5513 5520 5517 5514 5521 5527 5514 5526 5525 5504 5501 5510 5502 5513 5519 5528 5523 5526 5518 5488 5484 5526 5520 5530 5521 5516 5521 5540 5531 5580 5539 5600 5563 5550 5545 5538 5523 5512 5505
5435 5440 5445 5461 5470 5474 5491 5514 5519 5524 5525 5511 5522 5520 5522 5546 5551 5509 5506 5503 5520 5499 5505 5494 5498 5481 5483 5497 5503 5500 5514 5509 5519 5512 5523 5536 5541 5598 5570 5553 5535 5529 5522 5515 5505
5415 5423 5441 5469 5457 5456 5489 5539 5554 5544 5521 5558 5555 5517 5517 5550 5529 5536 5520 5521 5521 5512 5498 5488 5478 5471 5473 5478 5459 5478 5503 5516 5509 5503 5533 5517 5579 5591 5564 5551 5543 5530 5522 5522 5517